Regional Weather Roundup
Issued by NWS Goodland, KS

Home | Current Version | Previous Version | Graphics & Text | Print | Product List | Glossary On
Versions: 1 2 3 4 5 6 7 8 9 10 11 12 13 14 15 16 17 18 19 20 21 22 23 24 25 26 27 28 29 30 31 32 33 34 35 36 37 38 39 40 41 42 43 44 45 46 47 48 49 50
000
ASUS43 KGLD 271959
RWRGLD

GOODLAND FORECAST AREA HOURLY WEATHER ROUNDUP
NATIONAL WEATHER SERVICE GOODLAND KS
100 PM MST SAT DEC 27 2014

...OFFICIAL OBSERVATIONS...

CITY           SKY/WX    TMP DP  RH WIND       PRES   REMARKS
GOODLAND KS    SUNNY     26  16  65 NW14      30.17F WCI  14
HILL CITY KS   SUNNY     27  17  66 W12       30.24F WCI  17
IMPERIAL NEB   SUNNY     24  12  60 NW9       30.16F
MCCOOK NEB     SUNNY     24  15  68 W10       30.20F WCI  14
AKRON CO       SUNNY     19  12  74 W8        30.11F
BURLINGTON CO  SUNNY     25  13  60 NW10      30.15F WCI  15
LIMON CO       SUNNY     23  10  57 SW6       30.11F
$$

...UNOFFICIAL OBSERVATIONS...

CITY           SKY/WX    TMP DP  RH WIND       PRES   REMARKS
COLBY KS       SUNNY     27  19  74 W12       30.20F WCI  16
NORTON KS      SUNNY     28  16  59 W9        30.21F
SHARON SPRINGS   N/A     29  22  75 NW7         N/A
KIT CARSON CO    N/A     31  15  51 MISG        N/A
YUMA CO          N/A     22  12  64 W12         N/A  WCI  11
$$


USA.gov is the U.S. government's official web portal to all federal, state and local government web resources and services.